[[{"header":{"parameterUnit":"m.s-1","parameterCategory":1,"la1":30.2991,"la2":30.254,"lo1":-89.0895,"lo2":-89.0444,"dy":0.0017,"dx":0.0017,"nx":28,"ny":28,"refTime":"2024-04-12T21:00:00:Z","depth":0,"parameterNumber":2,"parameterNumberName":"U-component_of_WINDS"},"data":[0,0,0,0,0,0,0,0,0,0,0,0,0,0,0,0,0,0,0,0,0,0,0,0,0,0,0,0,0,0,0,0,0,0,0,0,0,0,0,0,0,0,0,0,0,0,0,0,0,0,0,0,0,0,0,0,0,0,-2.4936,-2.4936,0,-2.4949,-2.4949,-2.495,-2.4871,-2.4869,-2.4867,-2.4865,-2.4882,-2.4884,-2.4887,0,0,0,0,0,0,0,0,0,0,0,0,0,-2.4846,-2.4849,-2.4936,-2.4936,-2.4936,-2.4949,-2.4949,-2.495,-2.4872,-2.4869,-2.4866,-2.4864,-2.4881,-2.4884,-2.4887,0,0,0,0,0,0,0,0,0,0,0,0,0,-2.4875,-2.4849,-2.4936,-2.4899,-2.4896,-2.4949,-2.4949,-2.495,-2.4872,-2.4869,-2.4866,-2.4862,-2.488,-2.4884,-2.4887,-2.4978,0,0,-2.4899,-2.4901,0,0,0,0,0,0,0,0,-2.4874,-2.4879,-2.4904,-2.4901,-2.4898,-2.4905,-2.4924,-2.4959,-2.4873,-2.4881,-2.4865,-2.4861,-2.4892,-2.4895,-2.4905,-2.4979,-2.498,-2.4899,-2.4902,-2.4903,-2.4904,0,0,0,0,0,0,0,-2.4872,-2.4878,-2.4941,-2.4905,-2.4901,-2.4883,-2.4883,-2.493,-2.4906,-2.488,-2.4875,-2.4877,-2.489,-2.4902,-2.4905,-2.498,-2.4899,-2.4903,-2.4905,-2.4907,-2.5131,-2.5135,0,0,0,0,0,0,-2.4874,-2.4877,-2.4941,-2.4942,-2.4877,-2.4887,-2.4887,-2.4906,-2.4905,-2.4901,-2.488,-2.4873,-2.4897,-2.4901,-2.4905,-2.5013,-2.4903,-2.4907,-2.4909,-2.5128,-2.5132,-2.5136,0,0,0,0,0,0,-2.4873,-2.4881,-2.494,-2.4908,-2.4914,-2.4892,-2.4914,-2.4908,-2.4919,-2.4905,-2.49,-2.4896,-2.4894,-2.49,-2.4961,-2.5012,-2.4909,-2.4912,-2.5123,-2.5129,-2.5134,-2.5228,0,0,0,0,0,0,-2.487,-2.4881,-2.4914,-2.4909,-2.4916,-2.4995,-2.4917,-2.4911,-2.4926,-2.4918,-2.4918,-2.4915,-2.4892,-2.4956,-2.4965,-2.5016,-2.4915,-2.5119,-2.5126,-2.5133,-2.5221,-2.5236,-2.525,0,0,0,0,0,-2.4868,-2.494,-2.4916,-2.4924,-2.4957,-2.4998,-2.5002,-2.4973,-2.493,-2.4964,-2.4955,-2.4915,-2.5005,-2.4963,-2.4972,-2.5025,-2.5115,-2.5124,-2.5132,-2.5214,-2.5233,-2.525,0,0,0,0,0,0,-2.4953,-2.4939,-2.4912,-2.4985,-2.4993,-2.4985,-2.5026,-2.4994,-2.5015,-2.5006,-2.497,-2.4971,-2.5039,-2.5038,-2.4991,-2.5114,-2.5053,-2.5064,-2.5112,-2.513,-2.5145,-2.5144,-2.4918,0,0,0,0,0,-2.498,-2.5013,-2.5,-2.5065,-2.5071,-2.5048,-2.5065,-2.5042,-2.5049,-2.5053,-2.5048,-2.5058,-2.5088,-2.5109,-2.5136,-2.522,-2.522,-2.5261,-2.5276,-2.5288,-2.5298,-2.5344,-2.5363,-2.5164,-2.5163,-2.5163,0,0,-2.5036,-2.5033,-2.5056,-2.5082,-2.5086,-2.5123,-2.5052,-2.5093,-2.5121,-2.5059,-2.5117,-2.5114,-2.5123,-2.5196,-2.5228,-2.5197,-2.5353,-2.5299,-2.5308,-2.5312,-2.5355,-2.5374,-2.5391,-2.5169,-2.5168,-2.5167,0,0,-2.5158,-2.5158,-2.5214,-2.5219,-2.5226,-2.521,-2.5224,-2.5221,-2.5216,-2.5273,-2.5228,-2.5261,-2.5314,-2.5322,-2.5334,-2.5461,-2.5426,-2.5471,-2.5548,-2.5594,-2.5609,-2.5623,-2.567,-2.5688,-2.5481,-2.5481,-2.5481,0,-2.5228,-2.5281,-2.5247,-2.5292,-2.5306,-2.5251,-2.5308,-2.5315,-2.5331,-2.5342,-2.5307,-2.5373,-2.5375,-2.5451,-2.5482,-2.5492,-2.5508,-2.5471,-2.561,-2.5623,-2.5636,-2.568,-2.5698,-2.5486,-2.5486,-2.5485,-2.5485,0,-2.5367,-2.5405,-2.5449,-2.5465,-2.5483,-2.5534,-2.551,-2.5533,-2.5508,-2.5498,-2.5558,-2.5558,-2.5585,-2.5601,-2.5578,-2.5674,-2.5655,-2.5616,-2.5554,-2.5661,-2.5702,-2.5719,-2.5494,-2.5492,-2.5491,-2.5489,0,0,-2.5543,-2.554,-2.5557,-2.5565,-2.5568,-2.5597,-2.5647,-2.5672,-2.5694,-2.5707,-2.5748,-2.5795,-2.5759,-2.5772,-2.5749,-2.5789,-2.5892,-2.5744,-2.5744,-2.5773,-2.6001,-2.6032,-2.6052,-2.5868,-2.5871,-2.5874,-2.6001,0,-2.5664,-2.5747,-2.5718,-2.5804,-2.5839,-2.5788,-2.5831,-2.5839,-2.5831,-2.5861,-2.5851,-2.5886,-2.5834,-2.5842,-2.5879,-2.5872,-2.5938,-2.5862,-2.5909,-2.5911,-2.5909,-2.6073,-2.6105,-2.6225,-2.6016,-2.6019,-2.6021,0,-2.5815,-2.5834,-2.5923,-2.5922,-2.5936,-2.5975,-2.5997,-2.6026,-2.6035,-2.6026,-2.6041,-2.601,-2.606,-2.5998,-2.6068,-2.6017,-2.6035,-2.6034,-2.6038,-2.6042,-2.5973,-2.6083,-2.6262,-2.6281,-2.6046,-2.6044,-2.6042,0,-2.5937,-2.5984,-2.6044,-2.6051,-2.6051,-2.6081,-2.6082,-2.6087,-2.6105,-2.6125,-2.6137,-2.6163,-2.6178,-2.6199,-2.6177,-2.6133,-2.6251,-2.6186,-2.6247,-2.6248,-2.6275,-2.6273,-2.646,-2.6284,-2.6284,-2.6283,-2.6283,0,-2.6075,-2.6132,-2.6099,-2.6136,-2.6198,-2.6166,-2.6229,-2.6225,-2.6231,-2.6267,-2.6225,-2.626,-2.6228,-2.6261,-2.6244,-2.6306,-2.6313,-2.6308,-2.6303,-2.6313,-2.6314,-2.6325,-2.6316,-2.6288,-2.6287,-2.6286,-2.6285,0,-2.6222,-2.6201,-2.6263,-2.6259,-2.6259,-2.6306,-2.6302,-2.6337,-2.6325,-2.6372,-2.6382,-2.6364,-2.6401,-2.6381,-2.6419,-2.6408,-2.6488,-2.6471,-2.6485,-2.6481,-2.6544,-2.6539,-2.6745,-2.6771,-2.6577,-2.6579,-2.658,0,-2.6312,-2.6354,-2.6354,-2.6375,-2.638,-2.6414,-2.6432,-2.6402,-2.6423,-2.6438,-2.6471,-2.6504,-2.6529,-2.6591,-2.6583,-2.6613,-2.6597,-2.6667,-2.6601,-2.661,-2.66,-2.6599,-2.6604,-2.6681,-2.6683,-2.6685,-2.6687,0,-2.6475,-2.6463,-2.649,-2.6515,-2.6538,-2.6556,-2.657,-2.659,-2.6561,-2.6587,-2.6624,-2.6643,-2.6682,-2.6717,-2.6742,-2.6745,-2.6713,-2.6707,-2.6723,-2.6734,-2.6741,-2.674,-2.6523,-2.6703,-2.6701,-2.67,-2.6699,-2.6699,-2.6597,-2.6633,-2.6639,-2.6672,-2.6679,-2.6694,-2.6727,-2.672,-2.675,-2.6779,-2.676,-2.6805,-2.6814,-2.6845,-2.6853,-2.6888,-2.686,-2.6883,-2.6889,-2.6895,-2.6904,-2.6735,-2.6892,-2.6892,-2.6891,-2.6891,-2.6891,0,-2.6759,-2.6761,-2.6791,-2.6813,-2.6839,-2.6804,-2.6819,-2.6844,-2.6883,-2.6894,-2.6919,-2.6963,-2.6996,-2.6991,-2.7022,-2.7052,-2.7037,-2.7061,-2.7059,-2.7061,-2.6927,-2.6911,-2.7072,-2.7072,-2.7072,-2.7072,-2.7072,-2.7072,-2.6847,-2.6907,-2.6896,-2.696,-2.6961,-2.7004,-2.7016,-2.703,-2.7039,-2.7089,-2.7117,-2.7113,-2.7118,-2.7149,-2.7179,-2.7177,-2.7191,-2.7221,-2.7213,-2.7088,-2.707,-2.7053,-2.7038,-2.7223,-2.7224,-2.7345,-2.7346,-2.7347]},{"header":{"parameterUnit":"m.s-1","parameterCategory":1,"la1":30.2991,"la2":30.254,"lo1":-89.0895,"lo2":-89.0444,"dy":0.0017,"dx":0.0017,"nx":28,"ny":28,"refTime":"2024-04-12T21:00:00:Z","depth":0,"parameterNumber":3,"parameterNumberName":"V-component_of_WINDS"},"data":[0,0,0,0,0,0,0,0,0,0,0,0,0,0,0,0,0,0,0,0,0,0,0,0,0,0,0,0,0,0,0,0,0,0,0,0,0,0,0,0,0,0,0,0,0,0,0,0,0,0,0,0,0,0,0,0,0,0,-0.1695,-0.1695,0,-0.1693,-0.1693,-0.1693,-0.1682,-0.1682,-0.1682,-0.1681,-0.168,-0.168,-0.168,0,0,0,0,0,0,0,0,0,0,0,0,0,-0.1691,-0.1691,-0.1695,-0.1695,-0.1695,-0.1693,-0.1693,-0.1693,-0.1682,-0.1682,-0.1682,-0.1681,-0.168,-0.168,-0.168,0,0,0,0,0,0,0,0,0,0,0,0,0,-0.1691,-0.1691,-0.1696,-0.169,-0.1689,-0.1693,-0.1693,-0.1693,-0.1682,-0.1682,-0.1682,-0.1681,-0.168,-0.168,-0.168,-0.169,0,0,-0.1681,-0.1681,0,0,0,0,0,0,0,0,-0.1691,-0.1691,-0.1691,-0.169,-0.169,-0.1687,-0.1691,-0.1692,-0.1682,-0.1685,-0.1681,-0.1681,-0.1683,-0.1683,-0.1683,-0.169,-0.1689,-0.1681,-0.1681,-0.1681,-0.1681,0,0,0,0,0,0,0,-0.1691,-0.1691,-0.1695,-0.1691,-0.169,-0.1687,-0.1687,-0.1691,-0.1686,-0.1685,-0.1684,-0.1684,-0.1682,-0.1683,-0.1683,-0.1689,-0.1681,-0.1681,-0.1681,-0.1682,-0.1703,-0.1703,0,0,0,0,0,0,-0.1692,-0.1691,-0.1695,-0.1694,-0.1689,-0.1688,-0.1687,-0.1689,-0.1686,-0.1685,-0.1684,-0.1683,-0.1683,-0.1683,-0.1683,-0.1693,-0.1681,-0.1682,-0.1682,-0.1702,-0.1703,-0.1703,0,0,0,0,0,0,-0.1692,-0.1692,-0.1695,-0.1693,-0.1693,-0.1688,-0.169,-0.1689,-0.1689,-0.1685,-0.1685,-0.1686,-0.1682,-0.1682,-0.1688,-0.1693,-0.1682,-0.1682,-0.1702,-0.1702,-0.1703,-0.1715,0,0,0,0,0,0,-0.1692,-0.1692,-0.1696,-0.1693,-0.1693,-0.17,-0.169,-0.1689,-0.169,-0.1689,-0.1687,-0.1686,-0.1682,-0.1687,-0.1688,-0.1693,-0.1682,-0.1701,-0.1702,-0.1703,-0.1714,-0.1716,-0.1717,0,0,0,0,0,-0.1691,-0.17,-0.1696,-0.1697,-0.1697,-0.17,-0.17,-0.1695,-0.169,-0.1694,-0.1691,-0.1686,-0.1692,-0.1688,-0.1689,-0.1694,-0.1701,-0.1702,-0.1703,-0.1713,-0.1716,-0.1717,0,0,0,0,0,0,-0.1704,-0.1699,-0.1695,-0.1703,-0.1702,-0.1698,-0.1703,-0.1698,-0.1699,-0.1698,-0.1692,-0.1691,-0.1697,-0.1696,-0.1692,-0.1703,-0.1696,-0.1697,-0.1704,-0.1706,-0.1707,-0.1708,-0.1682,0,0,0,0,0,-0.1708,-0.171,-0.1706,-0.1713,-0.1713,-0.1708,-0.1709,-0.1705,-0.1704,-0.1704,-0.1701,-0.1701,-0.1702,-0.1704,-0.1705,-0.1713,-0.1713,-0.1717,-0.1719,-0.1721,-0.1722,-0.1726,-0.1728,-0.1706,-0.1706,-0.1706,0,0,-0.1716,-0.1713,-0.1715,-0.1715,-0.1714,-0.1717,-0.1708,-0.1711,-0.1713,-0.1704,-0.1709,-0.1707,-0.1706,-0.1713,-0.1715,-0.1712,-0.1727,-0.1722,-0.1723,-0.1723,-0.1727,-0.1729,-0.1731,-0.1706,-0.1706,-0.1706,0,0,-0.1731,-0.1729,-0.1735,-0.1734,-0.1732,-0.1728,-0.1729,-0.1726,-0.1725,-0.1729,-0.1722,-0.1724,-0.1728,-0.1727,-0.1727,-0.1741,-0.1736,-0.1741,-0.175,-0.1754,-0.1756,-0.1757,-0.1762,-0.1764,-0.1742,-0.1742,-0.1742,0,-0.1741,-0.1745,-0.1738,-0.1742,-0.1742,-0.1733,-0.1739,-0.1738,-0.1737,-0.1737,-0.1733,-0.1736,-0.1735,-0.1741,-0.1744,-0.1744,-0.1745,-0.1742,-0.1756,-0.1757,-0.1759,-0.1763,-0.1765,-0.1743,-0.1743,-0.1743,-0.1743,0,-0.1757,-0.176,-0.1764,-0.1763,-0.1763,-0.1768,-0.1762,-0.1763,-0.1759,-0.1756,-0.176,-0.1758,-0.1758,-0.1759,-0.1755,-0.1765,-0.1762,-0.1757,-0.175,-0.1762,-0.1766,-0.1768,-0.1744,-0.1744,-0.1743,-0.1743,0,0,-0.1782,-0.1776,-0.1778,-0.1777,-0.1773,-0.1775,-0.1779,-0.1779,-0.178,-0.1779,-0.1782,-0.1784,-0.1779,-0.1779,-0.1775,-0.1778,-0.1789,-0.1772,-0.1772,-0.1776,-0.1799,-0.1803,-0.1805,-0.1785,-0.1785,-0.1785,-0.1799,0,-0.1797,-0.1803,-0.1797,-0.1804,-0.1806,-0.1797,-0.18,-0.1799,-0.1795,-0.1797,-0.1793,-0.1795,-0.1788,-0.1787,-0.179,-0.1787,-0.1793,-0.1786,-0.1788,-0.1788,-0.1789,-0.1807,-0.1812,-0.1825,-0.18,-0.1801,-0.1801,0,-0.1816,-0.1815,-0.1823,-0.1818,-0.1818,-0.1821,-0.1821,-0.1822,-0.1819,-0.1816,-0.1816,-0.181,-0.1813,-0.1805,-0.1809,-0.1804,-0.1805,-0.1803,-0.1803,-0.1804,-0.1796,-0.1809,-0.1829,-0.1831,-0.1803,-0.1803,-0.1803,0,-0.1834,-0.1834,-0.1839,-0.1838,-0.1833,-0.1835,-0.1833,-0.1829,-0.183,-0.1829,-0.1829,-0.1828,-0.1828,-0.1828,-0.1822,-0.1817,-0.1827,-0.1819,-0.1825,-0.1825,-0.1828,-0.1828,-0.1849,-0.1827,-0.1827,-0.1827,-0.1827,0,-0.1852,-0.1857,-0.1847,-0.185,-0.1855,-0.1847,-0.1852,-0.1849,-0.1846,-0.1848,-0.184,-0.1842,-0.1834,-0.1835,-0.183,-0.1834,-0.1834,-0.1832,-0.1831,-0.1833,-0.1833,-0.1834,-0.1833,-0.1828,-0.1828,-0.1828,-0.1827,0,-0.1873,-0.1866,-0.1871,-0.1865,-0.1863,-0.1867,-0.1862,-0.1864,-0.186,-0.1862,-0.1862,-0.1855,-0.1856,-0.185,-0.185,-0.1846,-0.1853,-0.185,-0.1854,-0.1853,-0.186,-0.1859,-0.1882,-0.1885,-0.1861,-0.1861,-0.1861,0,-0.1885,-0.1889,-0.1883,-0.1883,-0.1881,-0.1882,-0.1882,-0.1874,-0.1874,-0.187,-0.1873,-0.1873,-0.1872,-0.1874,-0.1869,-0.1868,-0.1866,-0.1874,-0.1866,-0.1868,-0.1866,-0.1866,-0.1867,-0.1876,-0.1876,-0.1876,-0.1876,0,-0.1908,-0.1904,-0.1904,-0.1902,-0.1902,-0.1901,-0.1899,-0.19,-0.1891,-0.1891,-0.1891,-0.1891,-0.189,-0.189,-0.1888,-0.1886,-0.188,-0.1879,-0.188,-0.1883,-0.1885,-0.1884,-0.1859,-0.1878,-0.1878,-0.1878,-0.1878,-0.1878,-0.1925,-0.1928,-0.1924,-0.1923,-0.1921,-0.1919,-0.192,-0.1916,-0.1916,-0.1914,-0.1909,-0.191,-0.1906,-0.1903,-0.1901,-0.1902,-0.1898,-0.19,-0.1901,-0.1902,-0.1903,-0.1884,-0.1902,-0.1901,-0.1901,-0.1901,-0.1901,0,-0.1948,-0.1944,-0.1944,-0.1941,-0.1941,-0.1934,-0.1931,-0.1931,-0.1932,-0.1929,-0.1928,-0.1928,-0.1928,-0.1922,-0.1921,-0.1923,-0.192,-0.1923,-0.1923,-0.1922,-0.1906,-0.1905,-0.1925,-0.1925,-0.1925,-0.1925,-0.1925,-0.1925,-0.1959,-0.1963,-0.1959,-0.1961,-0.1957,-0.1958,-0.1956,-0.1954,-0.1952,-0.1952,-0.1951,-0.1947,-0.1943,-0.1941,-0.194,-0.1939,-0.1939,-0.1943,-0.194,-0.1926,-0.1924,-0.1921,-0.192,-0.1943,-0.1943,-0.1956,-0.1956,-0.1957]}]]